Time,TemperatureF,DewpointF,PressureIn,WindDirection,WindDirectionDegrees,WindSpeedMPH,WindSpeedGustMPH,Humidity,HourlyPrecipIn,Conditions,Clouds,dailyrainin,SoftwareType,DateUTC
2013-07-25 00:02:00,49.1,43.5,31.96,West,270,0.0,0.0,81,0.00,,,0.00,meteohub,2013-07-25 06:02:00,
2013-07-25 00:07:00,49.1,43.5,31.95,West,270,0.0,0.0,81,0.00,,,0.00,meteohub,2013-07-25 06:07:00,
2013-07-25 00:12:00,48.7,43.5,31.96,NW,315,0.0,0.0,82,0.00,,,0.00,meteohub,2013-07-25 06:12:00,
2013-07-25 00:17:00,48.6,43.3,31.95,South,180,0.0,0.0,82,0.00,,,0.00,meteohub,2013-07-25 06:17:00,
2013-07-25 00:22:00,48.6,43.7,31.95,SE,135,2.0,2.0,83,0.00,,,0.00,meteohub,2013-07-25 06:22:00,
2013-07-25 00:27:00,48.2,43.3,31.95,NW,315,2.0,2.0,83,0.00,,,0.00,meteohub,2013-07-25 06:27:00,
2013-07-25 00:32:00,48.0,43.3,31.95,SE,135,0.0,2.0,84,0.00,,,0.00,meteohub,2013-07-25 06:32:00,
2013-07-25 00:37:00,47.8,43.5,31.95,SE,135,0.0,2.0,85,0.00,,,0.00,meteohub,2013-07-25 06:37:00,
2013-07-25 00:42:00,47.7,43.3,31.95,SE,135,0.0,2.0,85,0.00,,,0.00,meteohub,2013-07-25 06:42:00,
2013-07-25 00:48:00,47.7,43.3,31.95,SE,135,0.0,0.0,85,0.00,,,0.00,meteohub,2013-07-25 06:48:00,
2013-07-25 00:53:00,47.5,43.2,31.95,SE,135,0.0,0.0,85,0.00,,,0.00,meteohub,2013-07-25 06:53:00,
2013-07-25 00:58:00,47.3,43.0,31.95,West,270,0.0,0.0,85,0.00,,,0.00,meteohub,2013-07-25 06:58:00,
2013-07-25 01:03:00,46.9,42.6,31.95,NW,315,0.0,0.0,85,0.00,,,0.00,meteohub,2013-07-25 07:03:00,
2013-07-25 01:09:00,46.6,42.3,31.95,West,270,0.0,0.0,85,0.00,,,0.00,meteohub,2013-07-25 07:09:00,
2013-07-25 01:14:00,46.4,42.1,31.95,SW,225,0.0,0.0,85,0.00,,,0.00,meteohub,2013-07-25 07:14:00,
2013-07-25 01:19:00,46.2,41.9,31.95,West,270,0.0,0.0,85,0.00,,,0.00,meteohub,2013-07-25 07:19:00,
2013-07-25 01:24:00,46.4,42.4,31.95,SE,135,0.0,0.0,86,0.00,,,0.00,meteohub,2013-07-25 07:24:00,
2013-07-25 01:30:00,46.6,42.6,31.94,SE,135,0.0,0.0,86,0.00,,,0.00,meteohub,2013-07-25 07:30:00,
2013-07-25 01:35:00,46.8,42.8,31.94,NW,315,0.0,0.0,86,0.00,,,0.00,meteohub,2013-07-25 07:35:00,
2013-07-25 01:40:00,46.9,43.0,31.94,NW,315,0.0,0.0,86,0.00,,,0.00,meteohub,2013-07-25 07:40:00,
2013-07-25 01:45:00,46.9,43.0,31.94,NW,315,0.0,0.0,86,0.00,,,0.00,meteohub,2013-07-25 07:45:00,
2013-07-25 01:50:00,46.9,43.0,31.94,South,180,0.0,0.0,86,0.00,,,0.00,meteohub,2013-07-25 07:50:00,
2013-07-25 01:56:00,46.9,43.0,31.94,South,180,0.0,0.0,86,0.00,,,0.00,meteohub,2013-07-25 07:56:00,
2013-07-25 02:01:00,46.9,43.0,31.94,South,180,0.0,0.0,86,0.00,,,0.00,meteohub,2013-07-25 08:01:00,
2013-07-25 02:06:00,46.9,43.0,31.94,South,180,0.0,0.0,86,0.00,,,0.00,meteohub,2013-07-25 08:06:00,
2013-07-25 02:11:00,46.8,42.8,31.94,SE,135,0.0,0.0,86,0.00,,,0.00,meteohub,2013-07-25 08:11:00,
2013-07-25 02:17:00,46.6,42.6,31.94,West,270,0.0,0.0,86,0.00,,,0.00,meteohub,2013-07-25 08:17:00,
2013-07-25 02:22:00,46.4,42.4,31.94,West,270,0.0,0.0,86,0.00,,,0.00,meteohub,2013-07-25 08:22:00,
2013-07-25 02:27:00,46.2,42.3,31.94,SE,135,0.0,0.0,86,0.00,,,0.00,meteohub,2013-07-25 08:27:00,
2013-07-25 02:32:00,46.0,42.1,31.94,SE,135,0.0,0.0,86,0.00,,,0.00,meteohub,2013-07-25 08:32:00,
2013-07-25 02:37:00,46.0,42.1,31.94,SW,225,0.0,0.0,86,0.00,,,0.00,meteohub,2013-07-25 08:37:00,
2013-07-25 02:42:00,46.0,42.1,31.94,West,270,0.0,0.0,86,0.00,,,0.00,meteohub,2013-07-25 08:42:00,
2013-07-25 02:47:00,46.0,42.4,31.94,West,270,0.0,0.0,87,0.00,,,0.00,meteohub,2013-07-25 08:47:00,
2013-07-25 02:52:00,46.2,42.6,31.94,West,270,0.0,0.0,87,0.00,,,0.00,meteohub,2013-07-25 08:52:00,
2013-07-25 02:57:00,46.2,42.6,31.94,West,270,0.0,0.0,87,0.00,,,0.00,meteohub,2013-07-25 08:57:00,
2013-07-25 03:02:00,46.2,42.6,31.94,SE,135,0.0,0.0,87,0.00,,,0.00,meteohub,2013-07-25 09:02:00,
2013-07-25 03:07:00,46.2,42.6,31.93,SE,135,0.0,0.0,87,0.00,,,0.00,meteohub,2013-07-25 09:07:00,
2013-07-25 03:12:00,46.2,42.8,31.94,NW,315,2.0,0.0,88,0.00,,,0.00,meteohub,2013-07-25 09:12:00,
2013-07-25 03:17:00,46.4,43.0,31.94,North,0,0.0,2.0,88,0.00,,,0.00,meteohub,2013-07-25 09:17:00,
2013-07-25 03:22:00,46.6,43.2,31.94,SW,225,0.0,2.0,88,0.00,,,0.00,meteohub,2013-07-25 09:22:00,
2013-07-25 03:27:00,46.9,43.9,31.94,SW,225,0.0,2.0,89,0.00,,,0.00,meteohub,2013-07-25 09:27:00,
2013-07-25 03:32:00,47.1,44.4,31.94,NW,315,0.0,0.0,90,0.00,,,0.00,meteohub,2013-07-25 09:32:00,
2013-07-25 03:37:00,47.3,44.8,31.94,South,180,1.0,2.0,91,0.00,,,0.00,meteohub,2013-07-25 09:37:00,
2013-07-25 03:43:00,47.5,45.3,31.94,SW,225,0.0,2.0,92,0.00,,,0.00,meteohub,2013-07-25 09:43:00,
2013-07-25 03:48:00,47.3,45.1,31.94,North,0,0.0,2.0,92,0.00,,,0.00,meteohub,2013-07-25 09:48:00,
2013-07-25 03:53:00,47.1,45.1,31.93,NW,315,3.0,3.0,93,0.00,,,0.00,meteohub,2013-07-25 09:53:00,
2013-07-25 03:59:00,46.4,44.4,31.94,West,270,0.0,2.0,93,0.00,,,0.00,meteohub,2013-07-25 09:59:00,
2013-07-25 04:04:00,46.2,44.2,31.93,West,270,0.0,3.0,93,0.00,,,0.00,meteohub,2013-07-25 10:04:00,
2013-07-25 04:09:00,45.9,44.2,31.94,NW,315,0.0,3.0,94,0.00,,,0.00,meteohub,2013-07-25 10:09:00,
2013-07-25 04:14:00,45.7,44.1,31.94,NW,315,0.0,2.0,94,0.01,,,0.01,meteohub,2013-07-25 10:14:00,
2013-07-25 04:20:00,45.5,44.2,31.94,South,180,0.0,2.0,95,0.01,,,0.01,meteohub,2013-07-25 10:20:00,
2013-07-25 04:25:00,45.3,44.1,31.94,West,270,0.0,2.0,95,0.01,,,0.01,meteohub,2013-07-25 10:25:00,
2013-07-25 04:30:00,45.5,44.4,31.94,West,270,1.0,8.0,96,0.01,,,0.01,meteohub,2013-07-25 10:30:00,
2013-07-25 04:35:00,45.5,44.8,31.94,West,270,0.0,8.0,97,0.01,,,0.01,meteohub,2013-07-25 10:35:00,
2013-07-25 04:41:00,45.5,44.8,31.94,West,270,0.0,2.0,97,0.01,,,0.01,meteohub,2013-07-25 10:41:00,
2013-07-25 04:46:00,45.5,44.8,31.94,West,270,0.0,1.0,97,0.01,,,0.01,meteohub,2013-07-25 10:46:00,
2013-07-25 04:51:00,45.7,45.0,31.95,West,270,0.0,0.0,97,0.01,,,0.01,meteohub,2013-07-25 10:51:00,
2013-07-25 04:57:00,45.7,45.0,31.94,SE,135,0.0,0.0,97,0.01,,,0.01,meteohub,2013-07-25 10:57:00,
2013-07-25 05:02:00,45.9,45.1,31.94,SE,135,0.0,0.0,97,0.01,,,0.01,meteohub,2013-07-25 11:02:00,
2013-07-25 05:07:00,45.9,45.1,31.94,West,270,0.0,1.0,97,0.01,,,0.01,meteohub,2013-07-25 11:07:00,
2013-07-25 05:12:00,45.9,45.1,31.94,SW,225,0.0,1.0,97,0.00,,,0.01,meteohub,2013-07-25 11:12:00,
2013-07-25 05:17:00,45.9,45.1,31.94,West,270,1.0,1.0,97,0.00,,,0.01,meteohub,2013-07-25 11:17:00,
2013-07-25 05:22:00,46.0,45.3,31.94,West,270,0.0,2.0,97,0.00,,,0.01,meteohub,2013-07-25 11:22:00,
2013-07-25 05:27:00,46.2,45.5,31.94,SW,225,1.0,2.0,97,0.00,,,0.01,meteohub,2013-07-25 11:27:00,
2013-07-25 05:32:00,46.2,45.5,31.93,SW,225,0.0,3.0,97,0.00,,,0.01,meteohub,2013-07-25 11:32:00,
2013-07-25 05:37:00,46.2,45.5,31.94,West,270,0.0,3.0,97,0.00,,,0.01,meteohub,2013-07-25 11:37:00,
2013-07-25 05:42:00,46.2,45.5,31.93,SW,225,1.0,3.0,97,0.00,,,0.01,meteohub,2013-07-25 11:42:00,
2013-07-25 05:47:00,46.2,45.5,31.93,South,180,1.0,2.0,97,0.00,,,0.01,meteohub,2013-07-25 11:47:00,
2013-07-25 05:52:00,46.4,46.2,31.94,West,270,2.0,2.0,99,0.00,,,0.01,meteohub,2013-07-25 11:52:00,
2013-07-25 05:57:00,46.6,46.4,31.93,SW,225,2.0,2.0,99,0.00,,,0.01,meteohub,2013-07-25 11:57:00,
2013-07-25 06:02:00,46.6,46.4,31.94,North,0,2.0,2.0,99,0.00,,,0.01,meteohub,2013-07-25 12:02:00,
2013-07-25 06:07:00,46.6,46.4,31.94,North,0,2.0,2.0,99,0.00,,,0.01,meteohub,2013-07-25 12:07:00,
2013-07-25 06:12:00,46.0,45.3,31.94,NW,315,1.0,2.0,97,0.00,,,0.01,meteohub,2013-07-25 12:12:00,
2013-07-25 06:17:00,45.9,45.1,31.94,NE,45,0.0,2.0,97,0.00,,,0.01,meteohub,2013-07-25 12:17:00,
2013-07-25 06:22:00,45.9,45.1,31.94,SW,225,1.0,2.0,97,0.00,,,0.01,meteohub,2013-07-25 12:22:00,
2013-07-25 06:27:00,45.9,45.1,31.95,West,270,0.0,2.0,97,0.00,,,0.01,meteohub,2013-07-25 12:27:00,
2013-07-25 06:32:00,45.9,45.1,31.95,NW,315,2.0,2.0,97,0.00,,,0.01,meteohub,2013-07-25 12:32:00,
2013-07-25 06:37:00,46.0,45.3,31.95,NW,315,2.0,2.0,97,0.00,,,0.01,meteohub,2013-07-25 12:37:00,
2013-07-25 06:42:00,46.2,45.5,31.94,NE,45,0.0,2.0,97,0.00,,,0.01,meteohub,2013-07-25 12:42:00,
2013-07-25 06:47:00,46.2,45.5,31.94,NE,45,0.0,2.0,97,0.00,,,0.01,meteohub,2013-07-25 12:47:00,
2013-07-25 06:53:00,46.2,45.5,31.94,East,90,0.0,2.0,97,0.00,,,0.01,meteohub,2013-07-25 12:53:00,
2013-07-25 06:58:00,46.4,46.2,31.94,East,90,1.0,1.0,99,0.00,,,0.01,meteohub,2013-07-25 12:58:00,
2013-07-25 07:03:00,46.6,46.4,31.94,East,90,0.0,1.0,99,0.00,,,0.01,meteohub,2013-07-25 13:03:00,
2013-07-25 07:08:00,46.8,46.6,31.94,East,90,0.0,1.0,99,0.00,,,0.01,meteohub,2013-07-25 13:08:00,
2013-07-25 07:13:00,46.9,46.8,31.95,South,180,1.0,1.0,99,0.00,,,0.01,meteohub,2013-07-25 13:13:00,
2013-07-25 07:19:00,47.1,46.9,31.94,South,180,0.0,1.0,99,0.00,,,0.01,meteohub,2013-07-25 13:19:00,
2013-07-25 07:24:00,47.5,47.3,31.94,South,180,2.0,2.0,99,0.00,,,0.01,meteohub,2013-07-25 13:24:00,
2013-07-25 07:29:00,48.0,47.8,31.94,West,270,2.0,8.0,99,0.00,,,0.01,meteohub,2013-07-25 13:29:00,
2013-07-25 07:34:00,48.6,48.4,31.94,SW,225,0.0,8.0,99,0.00,,,0.01,meteohub,2013-07-25 13:34:00,
2013-07-25 07:40:00,48.9,48.7,31.94,West,270,2.0,8.0,99,0.00,,,0.01,meteohub,2013-07-25 13:40:00,
2013-07-25 07:45:00,49.3,49.1,31.94,North,0,2.0,2.0,99,0.00,,,0.01,meteohub,2013-07-25 13:45:00,
2013-07-25 07:50:00,49.6,49.5,31.94,NW,315,2.0,2.0,99,0.00,,,0.01,meteohub,2013-07-25 13:50:00,
2013-07-25 07:55:00,50.0,49.6,31.94,West,270,2.0,3.0,99,0.00,,,0.01,meteohub,2013-07-25 13:55:00,
2013-07-25 08:01:00,50.0,49.5,31.94,SW,225,3.0,3.0,98,0.00,,,0.01,meteohub,2013-07-25 14:01:00,
2013-07-25 08:06:00,50.0,49.5,31.94,SW,225,3.0,4.0,98,0.00,,,0.01,meteohub,2013-07-25 14:06:00,
2013-07-25 08:11:00,50.5,49.6,31.95,NW,315,1.0,4.0,97,0.00,,,0.01,meteohub,2013-07-25 14:11:00,
2013-07-25 08:17:00,51.1,50.0,31.95,NW,315,0.0,3.0,96,0.00,,,0.01,meteohub,2013-07-25 14:17:00,
2013-07-25 08:22:00,51.8,50.4,31.95,NW,315,0.0,3.0,95,0.00,,,0.01,meteohub,2013-07-25 14:22:00,
2013-07-25 08:27:00,53.8,51.4,31.95,East,90,3.0,3.0,92,0.00,,,0.01,meteohub,2013-07-25 14:27:00,
2013-07-25 08:32:00,54.9,52.0,31.95,North,0,2.0,4.0,90,0.00,,,0.01,meteohub,2013-07-25 14:32:00,
2013-07-25 08:37:00,55.4,51.6,31.95,North,0,2.0,4.0,87,0.00,,,0.01,meteohub,2013-07-25 14:37:00,
2013-07-25 08:42:00,55.9,51.4,31.95,East,90,2.0,4.0,85,0.00,,,0.01,meteohub,2013-07-25 14:42:00,
2013-07-25 08:47:00,56.5,52.0,31.95,NE,45,2.0,4.0,85,0.00,,,0.01,meteohub,2013-07-25 14:47:00,
2013-07-25 08:52:00,56.3,50.9,31.95,East,90,3.0,3.0,82,0.00,,,0.01,meteohub,2013-07-25 14:52:00,
2013-07-25 08:57:00,55.9,50.5,31.95,East,90,2.0,4.0,82,0.00,,,0.01,meteohub,2013-07-25 14:57:00,
2013-07-25 09:02:00,56.3,50.9,31.95,SE,135,3.0,4.0,82,0.00,,,0.01,meteohub,2013-07-25 15:02:00,
2013-07-25 09:07:00,57.0,50.5,31.95,West,270,2.0,4.0,79,0.00,,,0.01,meteohub,2013-07-25 15:07:00,
2013-07-25 09:12:00,58.5,50.5,31.95,NW,315,2.0,4.0,75,0.00,,,0.01,meteohub,2013-07-25 15:12:00,
2013-07-25 09:17:00,59.9,51.3,31.96,West,270,3.0,4.0,73,0.00,,,0.01,meteohub,2013-07-25 15:17:00,
2013-07-25 09:22:00,61.0,50.0,31.95,NE,45,3.0,4.0,67,0.00,,,0.01,meteohub,2013-07-25 15:22:00,
2013-07-25 09:28:00,61.2,49.6,31.96,NE,45,4.0,4.0,66,0.00,,,0.01,meteohub,2013-07-25 15:28:00,
2013-07-25 09:33:00,61.0,50.0,31.96,East,90,2.0,4.0,67,0.00,,,0.01,meteohub,2013-07-25 15:33:00,
2013-07-25 09:38:00,60.6,50.0,31.96,NE,45,3.0,4.0,68,0.00,,,0.01,meteohub,2013-07-25 15:38:00,
2013-07-25 09:43:00,60.4,49.8,31.96,NE,45,2.0,4.0,68,0.00,,,0.01,meteohub,2013-07-25 15:43:00,
2013-07-25 09:49:00,60.3,50.0,31.96,NE,45,3.0,4.0,69,0.00,,,0.01,meteohub,2013-07-25 15:49:00,
2013-07-25 09:54:00,59.9,49.6,31.96,East,90,2.0,4.0,69,0.00,,,0.01,meteohub,2013-07-25 15:54:00,
2013-07-25 09:59:00,59.5,49.3,31.96,East,90,3.0,3.0,69,0.00,,,0.01,meteohub,2013-07-25 15:59:00,
2013-07-25 10:05:00,59.4,49.1,31.96,North,0,3.0,4.0,69,0.00,,,0.01,meteohub,2013-07-25 16:05:00,
2013-07-25 10:10:00,59.5,49.3,31.96,NW,315,2.0,4.0,69,0.00,,,0.01,meteohub,2013-07-25 16:10:00,
2013-07-25 10:16:00,60.1,49.5,31.96,SE,135,2.0,3.0,68,0.00,,,0.01,meteohub,2013-07-25 16:16:00,
2013-07-25 10:21:00,60.6,49.6,31.96,East,90,3.0,4.0,67,0.00,,,0.01,meteohub,2013-07-25 16:21:00,
2013-07-25 10:26:00,61.3,49.5,31.96,NE,45,4.0,4.0,65,0.00,,,0.01,meteohub,2013-07-25 16:26:00,
2013-07-25 10:32:00,61.9,49.1,31.97,NW,315,4.0,6.0,63,0.00,,,0.01,meteohub,2013-07-25 16:32:00,
2013-07-25 10:37:00,62.8,49.6,31.97,NW,315,4.0,6.0,62,0.00,,,0.01,meteohub,2013-07-25 16:37:00,
2013-07-25 10:42:00,63.9,49.6,31.97,North,0,2.0,6.0,60,0.00,,,0.01,meteohub,2013-07-25 16:42:00,
2013-07-25 10:47:00,64.6,48.0,31.97,SW,225,3.0,5.0,55,0.00,,,0.01,meteohub,2013-07-25 16:47:00,
2013-07-25 10:52:00,65.8,49.3,31.97,East,90,3.0,5.0,55,0.00,,,0.01,meteohub,2013-07-25 16:52:00,
2013-07-25 10:58:00,66.7,46.9,31.97,North,0,3.0,5.0,49,0.00,,,0.01,meteohub,2013-07-25 16:58:00,
2013-07-25 11:03:00,67.5,47.1,31.96,SW,225,7.0,7.0,48,0.00,,,0.01,meteohub,2013-07-25 17:03:00,
2013-07-25 11:08:00,68.0,46.4,31.96,West,270,6.0,7.0,46,0.00,,,0.01,meteohub,2013-07-25 17:08:00,
2013-07-25 11:14:00,68.5,45.1,31.96,West,270,8.0,8.0,43,0.00,,,0.01,meteohub,2013-07-25 17:14:00,
2013-07-25 11:19:00,69.3,44.6,31.96,NE,45,5.0,8.0,41,0.00,,,0.01,meteohub,2013-07-25 17:19:00,
2013-07-25 11:24:00,70.3,43.5,31.96,NW,315,5.0,9.0,38,0.00,,,0.01,meteohub,2013-07-25 17:24:00,
2013-07-25 11:29:00,70.7,42.4,31.96,NW,315,9.0,9.0,36,0.00,,,0.01,meteohub,2013-07-25 17:29:00,
2013-07-25 11:35:00,71.6,43.9,31.96,SW,225,4.0,9.0,37,0.00,,,0.01,meteohub,2013-07-25 17:35:00,
2013-07-25 11:40:00,71.6,41.0,31.96,North,0,5.0,10.0,33,0.00,,,0.01,meteohub,2013-07-25 17:40:00,
2013-07-25 11:45:00,71.2,43.0,31.96,East,90,7.0,10.0,36,0.00,,,0.01,meteohub,2013-07-25 17:45:00,
2013-07-25 11:51:00,71.4,41.5,31.96,NW,315,4.0,12.0,34,0.00,,,0.01,meteohub,2013-07-25 17:51:00,
2013-07-25 11:56:00,71.8,41.2,31.96,NW,315,6.0,12.0,33,0.00,,,0.01,meteohub,2013-07-25 17:56:00,
2013-07-25 12:01:00,72.3,43.2,31.96,NE,45,7.0,12.0,35,0.00,,,0.01,meteohub,2013-07-25 18:01:00,
2013-07-25 12:07:00,72.3,43.2,31.96,NE,45,7.0,8.0,35,0.00,,,0.01,meteohub,2013-07-25 18:07:00,
2013-07-25 12:12:00,72.3,45.3,31.96,North,0,8.0,8.0,38,0.00,,,0.01,meteohub,2013-07-25 18:12:00,
2013-07-25 12:17:00,71.4,43.2,31.96,North,0,4.0,9.0,36,0.00,,,0.01,meteohub,2013-07-25 18:17:00,
2013-07-25 12:22:00,70.2,43.3,31.96,NE,45,6.0,9.0,38,0.00,,,0.01,meteohub,2013-07-25 18:22:00,
2013-07-25 12:27:00,69.1,43.7,31.96,NE,45,4.0,10.0,40,0.00,,,0.01,meteohub,2013-07-25 18:27:00,
2013-07-25 12:32:00,68.4,43.2,31.96,North,0,4.0,10.0,40,0.00,,,0.01,meteohub,2013-07-25 18:32:00,
2013-07-25 12:37:00,68.2,43.5,31.96,North,0,3.0,10.0,41,0.00,,,0.01,meteohub,2013-07-25 18:37:00,
2013-07-25 12:42:00,67.6,43.7,31.96,SE,135,4.0,8.0,42,0.00,,,0.01,meteohub,2013-07-25 18:42:00,
2013-07-25 12:47:00,66.6,43.3,31.97,NW,315,5.0,9.0,43,0.00,,,0.01,meteohub,2013-07-25 18:47:00,
2013-07-25 12:52:00,65.5,42.4,31.97,East,90,5.0,10.0,43,0.00,,,0.01,meteohub,2013-07-25 18:52:00,
2013-07-25 12:58:00,64.8,43.0,31.97,North,0,4.0,10.0,45,0.00,,,0.01,meteohub,2013-07-25 18:58:00,
2013-07-25 13:03:00,66.0,44.6,31.97,North,0,4.0,10.0,46,0.00,,,0.01,meteohub,2013-07-25 19:03:00,
2013-07-25 13:08:00,66.9,44.2,31.97,East,90,4.0,9.0,44,0.00,,,0.01,meteohub,2013-07-25 19:08:00,
2013-07-25 13:13:00,66.7,44.1,31.97,North,0,3.0,8.0,44,0.00,,,0.01,meteohub,2013-07-25 19:13:00,
2013-07-25 13:18:00,66.2,43.7,31.98,SW,225,9.0,9.0,44,0.00,,,0.01,meteohub,2013-07-25 19:18:00,
2013-07-25 13:24:00,64.4,43.2,31.98,West,270,4.0,7.0,46,0.00,,,0.01,meteohub,2013-07-25 19:24:00,
2013-07-25 13:29:00,63.0,42.4,31.97,SW,225,2.0,9.0,47,0.00,,,0.01,meteohub,2013-07-25 19:29:00,
2013-07-25 13:34:00,62.4,44.6,31.97,North,0,1.0,9.0,52,0.00,,,0.01,meteohub,2013-07-25 19:34:00,
2013-07-25 13:40:00,62.4,43.5,31.97,NE,45,1.0,5.0,50,0.00,,,0.01,meteohub,2013-07-25 19:40:00,
2013-07-25 13:45:00,63.5,43.5,31.96,West,270,4.0,4.0,48,0.00,,,0.01,meteohub,2013-07-25 19:45:00,
2013-07-25 13:50:00,64.9,41.4,31.96,West,270,3.0,4.0,42,0.00,,,0.01,meteohub,2013-07-25 19:50:00,
2013-07-25 13:55:00,65.7,41.9,31.96,North,0,2.0,4.0,42,0.00,,,0.01,meteohub,2013-07-25 19:55:00,
2013-07-25 14:01:00,66.0,44.1,31.97,West,270,2.0,5.0,45,0.00,,,0.01,meteohub,2013-07-25 20:01:00,
2013-07-25 14:06:00,66.0,44.1,31.97,West,270,2.0,5.0,45,0.00,,,0.01,meteohub,2013-07-25 20:06:00,
2013-07-25 14:12:00,65.8,40.8,31.97,SW,225,4.0,5.0,40,0.00,,,0.01,meteohub,2013-07-25 20:12:00,
2013-07-25 14:17:00,65.5,40.5,31.97,East,90,3.0,7.0,40,0.00,,,0.01,meteohub,2013-07-25 20:17:00,
2013-07-25 14:22:00,65.3,40.3,31.98,NNW,338,4.0,7.0,40,0.00,,,0.01,meteohub,2013-07-25 20:22:00,
2013-07-25 14:27:00,65.1,40.8,31.98,West,270,15.0,15.0,41,0.00,,,0.01,meteohub,2013-07-25 20:27:00,
2013-07-25 14:32:00,63.7,41.9,31.98,SW,225,10.0,15.0,45,0.00,,,0.01,meteohub,2013-07-25 20:32:00,
2013-07-25 14:37:00,62.6,44.2,31.98,SW,225,6.0,15.0,51,0.00,,,0.01,meteohub,2013-07-25 20:37:00,
2013-07-25 14:42:00,62.6,42.1,31.97,West,270,8.0,15.0,47,0.00,,,0.01,meteohub,2013-07-25 20:42:00,
2013-07-25 14:48:00,63.3,42.8,31.98,NW,315,5.0,10.0,47,0.00,,,0.01,meteohub,2013-07-25 20:48:00,
2013-07-25 14:53:00,64.6,44.4,31.98,WNW,293,7.0,8.0,48,0.00,,,0.01,meteohub,2013-07-25 20:53:00,
2013-07-25 14:58:00,65.3,46.8,31.98,NW,315,9.0,12.0,51,0.00,,,0.01,meteohub,2013-07-25 20:58:00,
2013-07-25 15:04:00,67.8,46.2,31.98,NE,45,8.0,12.0,46,0.00,,,0.01,meteohub,2013-07-25 21:04:00,
2013-07-25 15:09:00,68.9,43.5,31.98,NW,315,9.0,12.0,40,0.00,,,0.01,meteohub,2013-07-25 21:09:00,
2013-07-25 15:14:00,68.9,44.2,31.97,North,0,4.0,15.0,41,0.00,,,0.01,meteohub,2013-07-25 21:14:00,
2013-07-25 15:20:00,68.9,43.5,31.97,SE,135,6.0,15.0,40,0.00,,,0.01,meteohub,2013-07-25 21:20:00,
2013-07-25 15:25:00,69.1,43.2,31.97,North,0,6.0,14.0,39,0.00,,,0.01,meteohub,2013-07-25 21:25:00,
2013-07-25 15:30:00,69.8,41.0,31.96,East,90,8.0,10.0,35,0.00,,,0.01,meteohub,2013-07-25 21:30:00,
2013-07-25 15:35:00,69.8,43.0,31.96,NE,45,6.0,15.0,38,0.00,,,0.01,meteohub,2013-07-25 21:35:00,
2013-07-25 15:41:00,70.3,45.0,31.96,NW,315,8.0,15.0,40,0.00,,,0.01,meteohub,2013-07-25 21:41:00,
2013-07-25 15:46:00,69.3,43.2,31.96,North,0,10.0,15.0,39,0.00,,,0.01,meteohub,2013-07-25 21:46:00,
2013-07-25 15:51:00,67.3,42.8,31.96,East,90,3.0,10.0,41,0.00,,,0.01,meteohub,2013-07-25 21:51:00,
2013-07-25 15:57:00,67.3,44.1,31.96,East,90,3.0,10.0,43,0.00,,,0.01,meteohub,2013-07-25 21:57:00,
2013-07-25 16:02:00,67.8,42.6,31.97,NNE,23,4.0,10.0,40,0.00,,,0.01,meteohub,2013-07-25 22:02:00,
2013-07-25 16:07:00,67.8,42.6,31.96,NNE,23,4.0,8.0,40,0.00,,,0.01,meteohub,2013-07-25 22:07:00,
2013-07-25 16:12:00,68.0,41.4,31.97,West,270,4.0,8.0,38,0.00,,,0.01,meteohub,2013-07-25 22:12:00,
2013-07-25 16:17:00,67.8,41.9,31.97,East,90,8.0,8.0,39,0.00,,,0.01,meteohub,2013-07-25 22:17:00,
2013-07-25 16:22:00,67.5,41.7,31.96,West,270,4.0,8.0,39,0.00,,,0.01,meteohub,2013-07-25 22:22:00,
2013-07-25 16:27:00,67.1,40.6,31.96,SW,225,3.0,8.0,38,0.00,,,0.01,meteohub,2013-07-25 22:27:00,
2013-07-25 16:33:00,67.1,41.4,31.96,SW,225,4.0,8.0,39,0.00,,,0.01,meteohub,2013-07-25 22:33:00,
2013-07-25 16:38:00,66.9,41.9,31.96,SE,135,2.0,8.0,40,0.00,,,0.01,meteohub,2013-07-25 22:38:00,
2013-07-25 16:43:00,66.7,41.0,31.96,SE,135,2.0,6.0,39,0.00,,,0.01,meteohub,2013-07-25 22:43:00,
2013-07-25 16:49:00,66.2,41.2,31.96,North,0,1.0,6.0,40,0.00,,,0.01,meteohub,2013-07-25 22:49:00,
2013-07-25 16:54:00,66.2,40.5,31.96,SE,135,3.0,6.0,39,0.00,,,0.01,meteohub,2013-07-25 22:54:00,
2013-07-25 16:59:00,66.0,41.7,31.96,East,90,0.0,3.0,41,0.00,,,0.01,meteohub,2013-07-25 22:59:00,
2013-07-25 17:04:00,66.0,42.3,31.96,SE,135,1.0,3.0,42,0.00,,,0.01,meteohub,2013-07-25 23:04:00,
2013-07-25 17:10:00,66.6,41.5,31.96,SW,225,0.0,3.0,40,0.00,,,0.01,meteohub,2013-07-25 23:10:00,
2013-07-25 17:15:00,66.9,41.2,31.96,NE,45,2.0,2.0,39,0.00,,,0.01,meteohub,2013-07-25 23:15:00,
2013-07-25 17:20:00,67.1,39.9,31.96,East,90,5.0,5.0,37,0.00,,,0.01,meteohub,2013-07-25 23:20:00,
2013-07-25 17:25:00,67.1,39.9,31.96,ENE,68,3.0,5.0,37,0.00,,,0.01,meteohub,2013-07-25 23:25:00,
2013-07-25 17:31:00,67.5,40.3,31.96,SE,135,4.0,5.0,37,0.00,,,0.01,meteohub,2013-07-25 23:31:00,
2013-07-25 17:36:00,68.0,40.1,31.96,NE,45,2.0,5.0,36,0.00,,,0.01,meteohub,2013-07-25 23:36:00,
2013-07-25 17:41:00,68.2,40.3,31.96,North,0,2.0,4.0,36,0.00,,,0.01,meteohub,2013-07-25 23:41:00,
2013-07-25 17:47:00,68.4,39.6,31.96,SE,135,4.0,4.0,35,0.00,,,0.01,meteohub,2013-07-25 23:47:00,
2013-07-25 17:52:00,67.6,40.5,31.96,East,90,0.0,6.0,37,0.00,,,0.01,meteohub,2013-07-25 23:52:00,
2013-07-25 17:57:00,67.3,40.1,31.96,NW,315,1.0,6.0,37,0.00,,,0.01,meteohub,2013-07-25 23:57:00,
2013-07-25 18:02:00,67.5,40.3,31.96,East,90,3.0,6.0,37,0.00,,,0.01,meteohub,2013-07-26 00:02:00,
2013-07-25 18:08:00,67.5,40.3,31.95,East,90,3.0,4.0,37,0.00,,,0.00,meteohub,2013-07-26 00:08:00,
2013-07-25 18:13:00,67.1,40.6,31.96,East,90,0.0,3.0,38,0.00,,,0.00,meteohub,2013-07-26 00:13:00,
2013-07-25 18:18:00,67.1,39.9,31.95,SE,135,0.0,3.0,37,0.00,,,0.00,meteohub,2013-07-26 00:18:00,
2013-07-25 18:23:00,66.9,40.5,31.96,SE,135,5.0,5.0,38,0.00,,,0.00,meteohub,2013-07-26 00:23:00,
2013-07-25 18:29:00,66.9,40.5,31.96,SE,135,5.0,5.0,38,0.00,,,0.00,meteohub,2013-07-26 00:29:00,
2013-07-25 18:34:00,64.0,42.8,31.96,SE,135,11.0,11.0,46,0.00,,,0.00,meteohub,2013-07-26 00:34:00,
2013-07-25 18:39:00,63.3,43.3,31.96,SE,135,14.0,14.0,48,0.00,,,0.00,meteohub,2013-07-26 00:39:00,
2013-07-25 18:45:00,63.3,43.3,31.96,SE,135,14.0,14.0,48,0.00,,,0.00,meteohub,2013-07-26 00:45:00,
2013-07-25 18:50:00,63.3,43.3,31.96,SE,135,14.0,14.0,48,0.00,,,0.00,meteohub,2013-07-26 00:50:00,
2013-07-25 18:55:00,61.2,44.8,31.97,East,90,10.0,14.0,55,0.00,,,0.00,meteohub,2013-07-26 00:55:00,
2013-07-25 19:00:00,61.0,44.8,31.97,SE,135,10.0,14.0,55,0.00,,,0.00,meteohub,2013-07-26 01:00:00,
2013-07-25 19:06:00,60.3,45.9,31.98,East,90,16.0,16.0,59,0.00,,,0.00,meteohub,2013-07-26 01:06:00,
2013-07-25 19:11:00,59.4,46.4,32.01,North,0,11.0,16.0,62,0.00,,,0.00,meteohub,2013-07-26 01:11:00,
2013-07-25 19:16:00,58.5,44.6,32.02,SE,135,7.0,16.0,60,0.00,,,0.00,meteohub,2013-07-26 01:16:00,
2013-07-25 19:22:00,56.1,46.8,32.02,NW,315,4.0,16.0,71,0.00,,,0.00,meteohub,2013-07-26 01:22:00,
2013-07-25 19:27:00,54.0,47.3,32.02,NW,315,5.0,11.0,78,0.01,,,0.01,meteohub,2013-07-26 01:27:00,
2013-07-25 19:32:00,52.7,47.7,32.02,West,270,4.0,10.0,83,0.05,,,0.02,meteohub,2013-07-26 01:32:00,
2013-07-25 19:37:00,51.4,47.7,32.02,NW,315,4.0,8.0,87,0.07,,,0.07,meteohub,2013-07-26 01:37:00,
2013-07-25 19:42:00,51.1,48.0,32.02,West,270,5.0,7.0,89,0.07,,,0.07,meteohub,2013-07-26 01:42:00,
2013-07-25 19:47:00,50.9,48.4,32.02,West,270,4.0,6.0,91,0.07,,,0.07,meteohub,2013-07-26 01:47:00,
2013-07-25 19:52:00,50.5,48.0,32.02,West,270,3.0,6.0,91,0.07,,,0.07,meteohub,2013-07-26 01:52:00,
2013-07-25 19:58:00,50.4,47.8,32.02,South,180,2.0,6.0,91,0.07,,,0.07,meteohub,2013-07-26 01:58:00,
2013-07-25 20:03:00,50.4,47.8,32.02,South,180,2.0,6.0,91,0.07,,,0.07,meteohub,2013-07-26 02:03:00,
2013-07-25 20:08:00,50.2,47.3,32.02,South,180,2.0,6.0,90,0.07,,,0.07,meteohub,2013-07-26 02:08:00,
2013-07-25 20:13:00,50.0,47.1,32.02,SE,135,2.0,5.0,90,0.07,,,0.07,meteohub,2013-07-26 02:13:00,
2013-07-25 20:18:00,49.8,47.3,32.02,SE,135,0.0,2.0,91,0.07,,,0.07,meteohub,2013-07-26 02:18:00,
2013-07-25 20:24:00,49.8,47.3,32.02,SE,135,0.0,2.0,91,0.07,,,0.07,meteohub,2013-07-26 02:24:00,
2013-07-25 20:29:00,49.8,47.7,32.02,SW,225,0.0,2.0,92,0.06,,,0.07,meteohub,2013-07-26 02:29:00,
2013-07-25 20:34:00,49.8,47.8,32.02,SW,225,0.0,1.0,93,0.02,,,0.07,meteohub,2013-07-26 02:34:00,
2013-07-25 20:40:00,49.6,48.0,32.03,SW,225,0.0,1.0,94,0.00,,,0.07,meteohub,2013-07-26 02:40:00,
2013-07-25 20:45:00,49.6,47.7,32.03,SW,225,0.0,1.0,93,0.00,,,0.07,meteohub,2013-07-26 02:45:00,
2013-07-25 20:50:00,49.5,47.8,32.03,East,90,2.0,2.0,94,0.00,,,0.07,meteohub,2013-07-26 02:50:00,
2013-07-25 20:56:00,49.3,47.7,32.02,South,180,2.0,2.0,94,0.00,,,0.07,meteohub,2013-07-26 02:56:00,
2013-07-25 21:01:00,49.1,47.5,32.03,South,180,2.0,3.0,94,0.00,,,0.07,meteohub,2013-07-26 03:01:00,
2013-07-25 21:06:00,49.1,47.7,32.03,SE,135,1.0,3.0,95,0.00,,,0.07,meteohub,2013-07-26 03:06:00,
2013-07-25 21:11:00,48.9,47.5,32.04,SE,135,0.0,3.0,95,0.00,,,0.07,meteohub,2013-07-26 03:11:00,
2013-07-25 21:17:00,48.6,47.1,32.03,SE,135,0.0,2.0,95,0.00,,,0.07,meteohub,2013-07-26 03:17:00,
2013-07-25 21:22:00,48.4,46.9,32.03,SE,135,0.0,1.0,95,0.00,,,0.07,meteohub,2013-07-26 03:22:00,
2013-07-25 21:27:00,48.2,46.8,32.03,West,270,1.0,1.0,95,0.00,,,0.07,meteohub,2013-07-26 03:27:00,
2013-07-25 21:32:00,47.8,46.8,32.03,SW,225,2.0,2.0,96,0.00,,,0.07,meteohub,2013-07-26 03:32:00,
2013-07-25 21:37:00,47.7,46.6,32.04,West,270,2.0,2.0,96,0.00,,,0.07,meteohub,2013-07-26 03:37:00,
2013-07-25 21:42:00,47.5,46.4,32.04,West,270,1.0,2.0,96,0.00,,,0.07,meteohub,2013-07-26 03:42:00,
2013-07-25 21:47:00,47.3,46.6,32.04,West,270,2.0,2.0,97,0.00,,,0.07,meteohub,2013-07-26 03:47:00,
2013-07-25 21:52:00,46.9,46.2,32.04,West,270,2.0,2.0,97,0.00,,,0.07,meteohub,2013-07-26 03:52:00,
2013-07-25 21:57:00,46.9,46.2,32.04,West,270,1.0,2.0,97,0.00,,,0.07,meteohub,2013-07-26 03:57:00,
2013-07-25 22:01:00,46.9,46.2,32.04,West,270,2.0,2.0,97,0.00,,,0.07,meteohub,2013-07-26 04:01:00,
2013-07-25 22:02:00,46.9,46.2,32.04,West,270,2.0,2.0,97,0.00,,,0.07,meteohub,2013-07-26 04:02:00,
2013-07-25 22:04:00,46.9,46.2,32.04,West,270,2.0,2.0,97,0.00,,,0.07,meteohub,2013-07-26 04:04:00,
2013-07-25 22:06:00,46.9,46.2,32.04,West,270,2.0,2.0,97,0.00,,,0.07,meteohub,2013-07-26 04:06:00,
2013-07-25 22:11:00,46.4,45.7,32.04,SW,225,0.0,2.0,97,0.01,,,0.08,meteohub,2013-07-26 04:11:00,
2013-07-25 22:17:00,46.2,45.5,32.04,North,0,0.0,2.0,97,0.01,,,0.08,meteohub,2013-07-26 04:17:00,
2013-07-25 22:22:00,46.0,45.3,32.04,South,180,1.0,2.0,97,0.01,,,0.08,meteohub,2013-07-26 04:22:00,
2013-07-25 22:27:00,46.0,45.3,32.04,West,270,1.0,1.0,97,0.01,,,0.08,meteohub,2013-07-26 04:27:00,
2013-07-25 22:32:00,45.9,45.1,32.04,SW,225,0.0,1.0,97,0.01,,,0.08,meteohub,2013-07-26 04:32:00,
2013-07-25 22:38:00,45.7,45.0,32.04,NW,315,0.0,1.0,97,0.01,,,0.08,meteohub,2013-07-26 04:38:00,
2013-07-25 22:43:00,45.5,44.8,32.04,NW,315,0.0,1.0,97,0.01,,,0.08,meteohub,2013-07-26 04:43:00,
2013-07-25 22:48:00,45.5,44.8,32.04,NW,315,0.0,0.0,97,0.01,,,0.08,meteohub,2013-07-26 04:48:00,
2013-07-25 22:53:00,45.7,45.0,32.04,NE,45,0.0,0.0,97,0.01,,,0.08,meteohub,2013-07-26 04:53:00,
2013-07-25 22:59:00,45.5,44.8,32.05,NW,315,1.0,1.0,97,0.01,,,0.08,meteohub,2013-07-26 04:59:00,
2013-07-25 23:04:00,45.3,44.6,32.05,SW,225,0.0,1.0,97,0.01,,,0.08,meteohub,2013-07-26 05:04:00,
2013-07-25 23:09:00,45.0,44.2,32.05,SW,225,0.0,2.0,97,0.01,,,0.08,meteohub,2013-07-26 05:09:00,
2013-07-25 23:14:00,44.8,44.1,32.05,SW,225,0.0,2.0,97,0.00,,,0.08,meteohub,2013-07-26 05:14:00,
2013-07-25 23:19:00,44.6,43.9,32.05,SW,225,0.0,0.0,97,0.00,,,0.08,meteohub,2013-07-26 05:19:00,
2013-07-25 23:25:00,44.2,43.7,32.05,South,180,0.0,0.0,98,0.00,,,0.08,meteohub,2013-07-26 05:25:00,
2013-07-25 23:30:00,44.1,43.5,32.05,South,180,0.0,0.0,98,0.00,,,0.08,meteohub,2013-07-26 05:30:00,
2013-07-25 23:35:00,43.9,43.3,32.04,South,180,0.0,0.0,98,0.00,,,0.08,meteohub,2013-07-26 05:35:00,
2013-07-25 23:40:00,43.9,43.3,32.04,South,180,0.0,0.0,98,0.00,,,0.08,meteohub,2013-07-26 05:40:00,
2013-07-25 23:46:00,43.9,43.3,32.04,West,270,0.0,0.0,98,0.00,,,0.08,meteohub,2013-07-26 05:46:00,
2013-07-25 23:51:00,43.9,43.3,32.05,SW,225,0.0,0.0,98,0.00,,,0.08,meteohub,2013-07-26 05:51:00,
2013-07-25 23:56:00,43.9,43.3,32.04,West,270,0.0,1.0,98,0.00,,,0.08,meteohub,2013-07-26 05:56:00,